"Sample Date","Sample Time","Sensor Name","Sample Value","Units","Flow Rate","Sample Interval","Sample Volume","Laser Status","Number Channels","Micron Size 0","Counts/Channel 0","Micron Size 1","Counts/Channel 1","Micron Size 2","Counts/Channel 2","Micron Size 3","Counts/Channel 3","Micron Size 4","Counts/Channel 4","Micron Size 5","Counts/Channel 5","Micron Size 6","Counts/Channel 6","Micron Size 7","Counts/Channel 7","Micron Size 8","Counts/Channel 8","Micron Size 9","Counts/Channel 9","Micron Size 10","Counts/Channel 10","Micron Size 11","Counts/Channel 11","Micron Size 12","Counts/Channel 12","Micron Size 13","Counts/Channel 13","Micron Size 14","Counts/Channel 14","Micron Size 15","Counts/Channel 15","Micron Size 16","Counts/Channel 16","Micron Size 17","Counts/Channel 17","Micron Size 18","Counts/Channel 18","Micron Size 19","Counts/Channel 19","Micron Size 20","Counts/Channel 20","Micron Size 21","Counts/Channel 21","Micron Size 22","Counts/Channel 22","Micron Size 23","Counts/Channel 23","Micron Size 24","Counts/Channel 24","Micron Size 25","Counts/Channel 25","Micron Size 26","Counts/Channel 26","Micron Size 27","Counts/Channel 27","Micron Size 28","Counts/Channel 28","Micron Size 29","Counts/Channel 29","Micron Size 30","Counts/Channel 30","Micron Size 31","Counts/Channel 31"
"07/08/06","21:00:01","AMMA06",30606.000,"cc",28309.902,6.00,2830.991,1,6,0.100,17644.000,0.200,11230.000,0.300,1382.000,0.500,226.000,1.000,124.000,5.000,0
"07/08/06","21:00:07","AMMA06",30875.000,"cc",28337.459,6.00,2833.746,1,6,0.100,17957.000,0.200,11198.000,0.300,1363.000,0.500,221.000,1.000,136.000,5.000,0
"07/08/06","21:00:13","AMMA06",30625.000,"cc",28280.922,6.00,2828.092,1,6,0.100,17776.000,0.200,11135.000,0.300,1362.000,0.500,221.000,1.000,131.000,5.000,0
"07/08/06","21:00:19","AMMA06",31239.000,"cc",28300.117,6.00,2830.012,1,6,0.100,18101.000,0.200,11286.000,0.300,1472.000,0.500,245.000,1.000,135.000,5.000,0
"07/08/06","21:00:25","AMMA06",31149.000,"cc",28390.229,6.00,2839.023,1,6,0.100,18113.000,0.200,11265.000,0.300,1391.000,0.500,246.000,1.000,134.000,5.000,0
"07/08/06","21:00:31","AMMA06",31218.000,"cc",28308.852,6.00,2830.885,1,6,0.100,18146.000,0.200,11164.000,0.300,1482.000,0.500,251.000,1.000,175.000,5.000,0
"07/08/06","21:00:37","AMMA06",32254.000,"cc",28273.984,6.00,2827.399,1,6,0.100,18444.000,0.200,11595.000,0.300,1657.000,0.500,343.000,1.000,215.000,5.000,0
"07/08/06","21:00:43","AMMA06",31737.000,"cc",28290.772,6.00,2829.077,1,6,0.100,18474.000,0.200,11327.000,0.300,1478.000,0.500,306.000,1.000,152.000,5.000,0
"07/08/06","21:00:49","AMMA06",31191.000,"cc",28332.699,6.00,2833.270,1,6,0.100,17938.000,0.200,11395.000,0.300,1450.000,0.500,271.000,1.000,137.000,5.000,0
"07/08/06","21:00:55","AMMA06",30994.000,"cc",28337.850,6.00,2833.785,1,6,0.100,18066.000,0.200,11186.000,0.300,1344.000,0.500,260.000,1.000,138.000,5.000,0
"07/08/06","21:01:01","AMMA06",31021.000,"cc",28368.617,6.00,2836.862,1,6,0.100,18064.000,0.200,11281.000,0.300,1341.000,0.500,197.000,1.000,138.000,5.000,0
"07/08/06","21:01:07","AMMA06",31226.000,"cc",28318.963,6.00,2831.897,1,6,0.100,17914.000,0.200,11507.000,0.300,1405.000,0.500,250.000,1.000,150.000,5.000,0
"07/08/06","21:01:13","AMMA06",31390.000,"cc",28287.041,6.00,2828.704,1,6,0.100,18196.000,0.200,11245.000,0.300,1474.000,0.500,317.000,1.000,158.000,5.000,0
"07/08/06","21:01:19","AMMA06",31304.000,"cc",28236.440,6.00,2823.644,1,6,0.100,18015.000,0.200,11517.000,0.300,1391.000,0.500,248.000,1.000,133.000,5.000,0
"07/08/06","21:01:25","AMMA06",31023.000,"cc",28295.957,6.00,2829.596,1,6,0.100,17912.000,0.200,11416.000,0.300,1351.000,0.500,194.000,1.000,150.000,5.000,0
"07/08/06","21:01:31","AMMA06",31454.000,"cc",28327.184,6.00,2832.719,1,6,0.100,18124.000,0.200,11584.000,0.300,1380.000,0.500,227.000,1.000,139.000,5.000,0
"07/08/06","21:01:37","AMMA06",30987.000,"cc",28365.895,6.00,2836.590,1,6,0.100,18030.000,0.200,11260.000,0.300,1365.000,0.500,217.000,1.000,115.000,5.000,0
"07/08/06","21:01:43","AMMA06",31455.000,"cc",28332.236,6.00,2833.224,1,6,0.100,18451.000,0.200,11277.000,0.300,1398.000,0.500,200.000,1.000,129.000,5.000,0
"07/08/06","21:01:49","AMMA06",31549.000,"cc",28374.613,6.00,2837.461,1,6,0.100,18308.000,0.200,11466.000,0.300,1370.000,0.500,260.000,1.000,145.000,5.000,0
"07/08/06","21:01:55","AMMA06",31355.000,"cc",28262.783,6.00,2826.279,1,6,0.100,18299.000,0.200,11335.000,0.300,1360.000,0.500,224.000,1.000,137.000,5.000,0
"07/08/06","21:02:01","AMMA06",31303.000,"cc",28286.367,6.00,2828.637,1,6,0.100,18270.000,0.200,11268.000,0.300,1423.000,0.500,209.000,1.000,133.000,5.000,0
"07/08/06","21:02:07","AMMA06",31172.000,"cc",28299.412,6.00,2829.941,1,6,0.100,18137.000,0.200,11298.000,0.300,1345.000,0.500,240.000,1.000,152.000,5.000,0
"07/08/06","21:02:13","AMMA06",31136.000,"cc",28340.721,6.00,2834.072,1,6,0.100,18402.000,0.200,11049.000,0.300,1309.000,0.500,245.000,1.000,131.000,5.000,0
"07/08/06","21:02:19","AMMA06",31285.000,"cc",28345.992,6.00,2834.599,1,6,0.100,18267.000,0.200,11337.000,0.300,1324.000,0.500,222.000,1.000,135.000,5.000,0
"07/08/06","21:02:25","AMMA06",31179.000,"cc",28269.830,6.00,2826.983,1,6,0.100,18108.000,0.200,11404.000,0.300,1309.000,0.500,202.000,1.000,156.000,5.000,0
"07/08/06","21:02:31","AMMA06",31342.000,"cc",28270.322,6.00,2827.033,1,6,0.100,18339.000,0.200,11310.000,0.300,1364.000,0.500,203.000,1.000,126.000,5.000,0
"07/08/06","21:02:37","AMMA06",31288.000,"cc",28280.240,6.00,2828.024,1,6,0.100,18235.000,0.200,11304.000,0.300,1370.000,0.500,234.000,1.000,145.000,5.000,0
"07/08/06","21:02:43","AMMA06",31027.000,"cc",28362.754,6.00,2836.276,1,6,0.100,18204.000,0.200,11160.000,0.300,1363.000,0.500,189.000,1.000,111.000,5.000,0
"07/08/06","21:02:49","AMMA06",31082.000,"cc",28340.566,6.00,2834.057,1,6,0.100,18344.000,0.200,10958.000,0.300,1385.000,0.500,274.000,1.000,121.000,5.000,0
"07/08/06","21:02:55","AMMA06",31784.000,"cc",28299.779,6.00,2829.978,1,6,0.100,18452.000,0.200,11255.000,0.300,1566.000,0.500,346.000,1.000,165.000,5.000,0
"07/08/06","21:03:01","AMMA06",31260.000,"cc",28302.068,6.00,2830.207,1,6,0.100,18387.000,0.200,11203.000,0.300,1308.000,0.500,236.000,1.000,126.000,5.000,0
"07/08/06","21:03:07","AMMA06",30791.000,"cc",28313.758,6.00,2831.376,1,6,0.100,18022.000,0.200,11149.000,0.300,1311.000,0.500,208.000,1.000,101.000,5.000,0
"07/08/06","21:03:13","AMMA06",30962.000,"cc",28373.422,6.00,2837.342,1,6,0.100,18250.000,0.200,11090.000,0.300,1278.000,0.500,211.000,1.000,133.000,5.000,0
"07/08/06","21:03:19","AMMA06",31131.000,"cc",28343.424,6.00,2834.343,1,6,0.100,18388.000,0.200,11124.000,0.300,1287.000,0.500,196.000,1.000,136.000,5.000,0
"07/08/06","21:03:25","AMMA06",31309.000,"cc",28277.488,6.00,2827.749,1,6,0.100,18412.000,0.200,11264.000,0.300,1273.000,0.500,213.000,1.000,147.000,5.000,0
"07/08/06","21:03:31","AMMA06",30883.000,"cc",28277.676,6.00,2827.768,1,6,0.100,18311.000,0.200,10934.000,0.300,1302.000,0.500,195.000,1.000,141.000,5.000,0
"07/08/06","21:03:37","AMMA06",30679.000,"cc",28370.914,6.00,2837.092,1,6,0.100,18184.000,0.200,10931.000,0.300,1232.000,0.500,214.000,1.000,118.000,5.000,0
"07/08/06","21:03:43","AMMA06",30940.000,"cc",28311.898,6.00,2831.190,1,6,0.100,18329.000,0.200,10969.000,0.300,1303.000,0.500,221.000,1.000,118.000,5.000,0
"07/08/06","21:03:49","AMMA06",31130.000,"cc",28320.834,6.00,2832.084,1,6,0.100,18328.000,0.200,11219.000,0.300,1269.000,0.500,208.000,1.000,106.000,5.000,0
"07/08/06","21:03:55","AMMA06",31347.000,"cc",28311.830,6.00,2831.183,1,6,0.100,18499.000,0.200,11184.000,0.300,1328.000,0.500,217.000,1.000,119.000,5.000,0
"07/08/06","21:04:01","AMMA06",34308.000,"cc",28288.592,6.00,2828.859,1,6,0.100,19825.000,0.200,11802.000,0.300,1908.000,0.500,534.000,1.000,239.000,5.000,0
"07/08/06","21:04:07","AMMA06",32603.000,"cc",28325.945,6.00,2832.595,1,6,0.100,19087.000,0.200,11372.000,0.300,1601.000,0.500,389.000,1.000,154.000,5.000,0
"07/08/06","21:04:13","AMMA06",32116.000,"cc",28349.912,6.00,2834.992,1,6,0.100,18871.000,0.200,11318.000,0.300,1488.000,0.500,274.000,1.000,165.000,5.000,0
"07/08/06","21:04:19","AMMA06",31272.000,"cc",28242.477,6.00,2824.248,1,6,0.100,18313.000,0.200,11205.000,0.300,1391.000,0.500,215.000,1.000,148.000,5.000,0
"07/08/06","21:04:25","AMMA06",31572.000,"cc",28346.611,6.00,2834.661,1,6,0.100,18607.000,0.200,11220.000,0.300,1371.000,0.500,244.000,1.000,130.000,5.000,0
"07/08/06","21:04:31","AMMA06",31072.000,"cc",28298.930,6.00,2829.893,1,6,0.100,18438.000,0.200,10953.000,0.300,1335.000,0.500,219.000,1.000,127.000,5.000,0
"07/08/06","21:04:37","AMMA06",31556.000,"cc",28322.705,6.00,2832.271,1,6,0.100,18408.000,0.200,11471.000,0.300,1308.000,0.500,240.000,1.000,129.000,5.000,0
"07/08/06","21:04:43","AMMA06",31368.000,"cc",28279.150,6.00,2827.915,1,6,0.100,18346.000,0.200,11305.000,0.300,1374.000,0.500,206.000,1.000,137.000,5.000,0
"07/08/06","21:04:49","AMMA06",31597.000,"cc",28306.162,6.00,2830.617,1,6,0.100,18464.000,0.200,11456.000,0.300,1346.000,0.500,209.000,1.000,122.000,5.000,0
"07/08/06","21:04:55","AMMA06",31532.000,"cc",28352.389,6.00,2835.239,1,6,0.100,18592.000,0.200,11214.000,0.300,1346.000,0.500,221.000,1.000,159.000,5.000,0
"07/08/06","21:05:01","AMMA06",31226.000,"cc",28348.223,6.00,2834.823,1,6,0.100,18267.000,0.200,11284.000,0.300,1335.000,0.500,223.000,1.000,117.000,5.000,0
"07/08/06","21:05:07","AMMA06",31348.000,"cc",28327.398,6.00,2832.740,1,6,0.100,18295.000,0.200,11270.000,0.300,1367.000,0.500,258.000,1.000,158.000,5.000,0
"07/08/06","21:05:13","AMMA06",31412.000,"cc",28270.330,6.00,2827.033,1,6,0.100,18321.000,0.200,11343.000,0.300,1369.000,0.500,234.000,1.000,145.000,5.000,0
"07/08/06","21:05:19","AMMA06",31144.000,"cc",28326.844,6.00,2832.685,1,6,0.100,18319.000,0.200,11181.000,0.300,1286.000,0.500,223.000,1.000,135.000,5.000,0
"07/08/06","21:05:25","AMMA06",31925.000,"cc",28315.389,6.00,2831.539,1,6,0.100,18738.000,0.200,11480.000,0.300,1335.000,0.500,231.000,1.000,141.000,5.000,0
"07/08/06","21:05:31","AMMA06",31388.000,"cc",28290.195,6.00,2829.020,1,6,0.100,18362.000,0.200,11360.000,0.300,1361.000,0.500,188.000,1.000,117.000,5.000,0
"07/08/06","21:05:37","AMMA06",31574.000,"cc",28304.791,6.00,2830.479,1,6,0.100,18457.000,0.200,11388.000,0.300,1388.000,0.500,203.000,1.000,138.000,5.000,0
"07/08/06","21:05:43","AMMA06",31367.000,"cc",28350.777,6.00,2835.078,1,6,0.100,18270.000,0.200,11341.000,0.300,1405.000,0.500,234.000,1.000,117.000,5.000,0
"07/08/06","21:05:49","AMMA06",31691.000,"cc",28347.002,6.00,2834.700,1,6,0.100,18410.000,0.200,11551.000,0.300,1398.000,0.500,214.000,1.000,118.000,5.000,0
"07/08/06","21:05:55","AMMA06",31750.000,"cc",28286.900,6.00,2828.690,1,6,0.100,18595.000,0.200,11434.000,0.300,1383.000,0.500,223.000,1.000,115.000,5.000,0
"07/08/06","21:06:01","AMMA06",31844.000,"cc",28316.654,6.00,2831.666,1,6,0.100,18521.000,0.200,11544.000,0.300,1392.000,0.500,255.000,1.000,132.000,5.000,0
"07/08/06","21:06:07","AMMA06",32257.000,"cc",28344.666,6.00,2834.467,1,6,0.100,18742.000,0.200,11640.000,0.300,1449.000,0.500,287.000,1.000,139.000,5.000,0
"07/08/06","21:06:13","AMMA06",31617.000,"cc",28306.014,6.00,2830.602,1,6,0.100,18503.000,0.200,11397.000,0.300,1340.000,0.500,229.000,1.000,148.000,5.000,0
"07/08/06","21:06:19","AMMA06",31770.000,"cc",28357.691,6.00,2835.769,1,6,0.100,18590.000,0.200,11458.000,0.300,1378.000,0.500,201.000,1.000,143.000,5.000,0
"07/08/06","21:06:25","AMMA06",31449.000,"cc",28289.654,6.00,2828.966,1,6,0.100,18338.000,0.200,11402.000,0.300,1352.000,0.500,221.000,1.000,136.000,5.000,0
"07/08/06","21:06:31","AMMA06",31450.000,"cc",28333.486,6.00,2833.349,1,6,0.100,18396.000,0.200,11357.000,0.300,1339.000,0.500,231.000,1.000,127.000,5.000,0
"07/08/06","21:06:37","AMMA06",32203.000,"cc",28320.316,6.00,2832.032,1,6,0.100,18483.000,0.200,11671.000,0.300,1567.000,0.500,321.000,1.000,161.000,5.000,0
"07/08/06","21:06:43","AMMA06",32272.000,"cc",28294.686,6.00,2829.469,1,6,0.100,18662.000,0.200,11615.000,0.300,1516.000,0.500,298.000,1.000,181.000,5.000,0
"07/08/06","21:06:49","AMMA06",32091.000,"cc",28327.438,6.00,2832.744,1,6,0.100,18570.000,0.200,11632.000,0.300,1462.000,0.500,280.000,1.000,147.000,5.000,0
"07/08/06","21:06:55","AMMA06",32217.000,"cc",28309.617,6.00,2830.962,1,6,0.100,18469.000,0.200,11674.000,0.300,1566.000,0.500,338.000,1.000,170.000,5.000,0
"07/08/06","21:07:01","AMMA06",32339.000,"cc",28325.115,6.00,2832.512,1,6,0.100,18494.000,0.200,11777.000,0.300,1571.000,0.500,326.000,1.000,171.000,5.000,0
"07/08/06","21:07:07","AMMA06",31883.000,"cc",28305.107,6.00,2830.511,1,6,0.100,18237.000,0.200,11809.000,0.300,1479.000,0.500,206.000,1.000,152.000,5.000,0
"07/08/06","21:07:13","AMMA06",31745.000,"cc",28337.488,6.00,2833.749,1,6,0.100,18222.000,0.200,11621.000,0.300,1484.000,0.500,263.000,1.000,155.000,5.000,0
"07/08/06","21:07:19","AMMA06",31297.000,"cc",28266.590,6.00,2826.659,1,6,0.100,17972.000,0.200,11481.000,0.300,1429.000,0.500,254.000,1.000,161.000,5.000,0
"07/08/06","21:07:25","AMMA06",31621.000,"cc",28305.045,6.00,2830.505,1,6,0.100,17969.000,0.200,11641.000,0.300,1547.000,0.500,302.000,1.000,162.000,5.000,0
"07/08/06","21:07:31","AMMA06",32067.000,"cc",28334.508,6.00,2833.451,1,6,0.100,18228.000,0.200,11930.000,0.300,1499.000,0.500,234.000,1.000,176.000,5.000,0
"07/08/06","21:07:37","AMMA06",31325.000,"cc",28311.049,6.00,2831.105,1,6,0.100,18041.000,0.200,11516.000,0.300,1394.000,0.500,264.000,1.000,110.000,5.000,0
"07/08/06","21:07:43","AMMA06",31047.000,"cc",28347.361,6.00,2834.736,1,6,0.100,17867.000,0.200,11526.000,0.300,1317.000,0.500,223.000,1.000,114.000,5.000,0
"07/08/06","21:07:49","AMMA06",31164.000,"cc",28348.496,6.00,2834.850,1,6,0.100,17835.000,0.200,11591.000,0.300,1431.000,0.500,183.000,1.000,124.000,5.000,0
"07/08/06","21:07:55","AMMA06",31113.000,"cc",28269.463,6.00,2826.947,1,6,0.100,17833.000,0.200,11474.000,0.300,1457.000,0.500,225.000,1.000,124.000,5.000,0
"07/08/06","21:08:01","AMMA06",31652.000,"cc",28348.514,6.00,2834.852,1,6,0.100,18041.000,0.200,11666.000,0.300,1567.000,0.500,241.000,1.000,137.000,5.000,0
"07/08/06","21:08:07","AMMA06",31342.000,"cc",28367.441,6.00,2836.744,1,6,0.100,17982.000,0.200,11455.000,0.300,1495.000,0.500,270.000,1.000,140.000,5.000,0
"07/08/06","21:08:13","AMMA06",31255.000,"cc",28337.086,6.00,2833.709,1,6,0.100,17951.000,0.200,11588.000,0.300,1372.000,0.500,223.000,1.000,121.000,5.000,0
"07/08/06","21:08:19","AMMA06",31147.000,"cc",28307.518,6.00,2830.752,1,6,0.100,17900.000,0.200,11477.000,0.300,1396.000,0.500,239.000,1.000,135.000,5.000,0
"07/08/06","21:08:25","AMMA06",31070.000,"cc",28289.195,6.00,2828.920,1,6,0.100,18043.000,0.200,11358.000,0.300,1334.000,0.500,208.000,1.000,127.000,5.000,0
"07/08/06","21:08:31","AMMA06",31138.000,"cc",28275.623,6.00,2827.563,1,6,0.100,18034.000,0.200,11291.000,0.300,1454.000,0.500,240.000,1.000,119.000,5.000,0
"07/08/06","21:08:37","AMMA06",31487.000,"cc",28321.492,6.00,2832.149,1,6,0.100,18246.000,0.200,11298.000,0.300,1509.000,0.500,259.000,1.000,175.000,5.000,0
"07/08/06","21:08:43","AMMA06",31625.000,"cc",28345.336,6.00,2834.534,1,6,0.100,18222.000,0.200,11466.000,0.300,1494.000,0.500,286.000,1.000,157.000,5.000,0
"07/08/06","21:08:49","AMMA06",31346.000,"cc",28277.318,6.00,2827.732,1,6,0.100,18342.000,0.200,11321.000,0.300,1318.000,0.500,232.000,1.000,133.000,5.000,0
"07/08/06","21:08:55","AMMA06",31130.000,"cc",28312.613,6.00,2831.262,1,6,0.100,17921.000,0.200,11394.000,0.300,1459.000,0.500,227.000,1.000,129.000,5.000,0
"07/08/06","21:09:01","AMMA06",31532.000,"cc",28304.225,6.00,2830.423,1,6,0.100,18271.000,0.200,11519.000,0.300,1364.000,0.500,229.000,1.000,149.000,5.000,0
"07/08/06","21:09:07","AMMA06",31577.000,"cc",28275.016,6.00,2827.502,1,6,0.100,18373.000,0.200,11451.000,0.300,1412.000,0.500,215.000,1.000,126.000,5.000,0
"07/08/06","21:09:13","AMMA06",31270.000,"cc",28379.695,6.00,2837.970,1,6,0.100,18062.000,0.200,11507.000,0.300,1329.000,0.500,231.000,1.000,141.000,5.000,0
"07/08/06","21:09:19","AMMA06",30990.000,"cc",28300.221,6.00,2830.022,1,6,0.100,18010.000,0.200,11191.000,0.300,1445.000,0.500,209.000,1.000,135.000,5.000,0
"07/08/06","21:09:25","AMMA06",30837.000,"cc",28291.512,6.00,2829.151,1,6,0.100,17948.000,0.200,11226.000,0.300,1332.000,0.500,203.000,1.000,128.000,5.000,0
"07/08/06","21:09:31","AMMA06",30977.000,"cc",28334.772,6.00,2833.477,1,6,0.100,18246.000,0.200,11058.000,0.300,1317.000,0.500,215.000,1.000,141.000,5.000,0
"07/08/06","21:09:37","AMMA06",31500.000,"cc",28336.063,6.00,2833.606,1,6,0.100,18381.000,0.200,11195.000,0.300,1485.000,0.500,283.000,1.000,156.000,5.000,0
"07/08/06","21:09:43","AMMA06",31082.000,"cc",28309.861,6.00,2830.986,1,6,0.100,18234.000,0.200,11213.000,0.300,1308.000,0.500,197.000,1.000,130.000,5.000,0
"07/08/06","21:09:49","AMMA06",31060.000,"cc",28336.285,6.00,2833.629,1,6,0.100,18335.000,0.200,10999.000,0.300,1356.000,0.500,242.000,1.000,128.000,5.000,0
"07/08/06","21:09:55","AMMA06",31045.000,"cc",28319.287,6.00,2831.929,1,6,0.100,18087.000,0.200,11257.000,0.300,1351.000,0.500,234.000,1.000,116.000,5.000,0
"07/08/06","21:10:01","AMMA06",30552.000,"cc",28242.264,6.00,2824.227,1,6,0.100,17963.000,0.200,10970.000,0.300,1289.000,0.500,225.000,1.000,105.000,5.000,0
"07/08/06","21:10:07","AMMA06",30869.000,"cc",28366.217,6.00,2836.622,1,6,0.100,18288.000,0.200,10896.000,0.300,1364.000,0.500,202.000,1.000,118.000,5.000,1.000
"07/08/06","21:10:13","AMMA06",30306.000,"cc",28347.430,6.00,2834.743,1,6,0.100,17783.000,0.200,10869.000,0.300,1297.000,0.500,227.000,1.000,130.000,5.000,0
"07/08/06","21:10:19","AMMA06",30840.000,"cc",28305.760,6.00,2830.576,1,6,0.100,17943.000,0.200,11177.000,0.300,1362.000,0.500,239.000,1.000,119.000,5.000,0
"07/08/06","21:10:25","AMMA06",30297.000,"cc",28306.979,6.00,2830.698,1,6,0.100,17849.000,0.200,10835.000,0.300,1289.000,0.500,212.000,1.000,112.000,5.000,0
"07/08/06","21:10:31","AMMA06",30747.000,"cc",28309.861,6.00,2830.986,1,6,0.100,18149.000,0.200,11025.000,0.300,1272.000,0.500,188.000,1.000,113.000,5.000,0
"07/08/06","21:10:37","AMMA06",30227.000,"cc",28339.529,6.00,2833.953,1,6,0.100,17679.000,0.200,10934.000,0.300,1283.000,0.500,206.000,1.000,125.000,5.000,0
"07/08/06","21:10:43","AMMA06",30627.000,"cc",28378.568,6.00,2837.857,1,6,0.100,18084.000,0.200,10920.000,0.300,1294.000,0.500,197.000,1.000,132.000,5.000,0
"07/08/06","21:10:49","AMMA06",30743.000,"cc",28297.477,6.00,2829.748,1,6,0.100,18122.000,0.200,10865.000,0.300,1340.000,0.500,276.000,1.000,140.000,5.000,0
"07/08/06","21:10:55","AMMA06",30946.000,"cc",28324.936,6.00,2832.494,1,6,0.100,18072.000,0.200,11068.000,0.300,1362.000,0.500,274.000,1.000,170.000,5.000,0
"07/08/06","21:11:01","AMMA06",31771.000,"cc",28305.688,6.00,2830.569,1,6,0.100,18552.000,0.200,11196.000,0.300,1481.000,0.500,366.000,1.000,176.000,5.000,0
"07/08/06","21:11:07","AMMA06",30889.000,"cc",28334.197,6.00,2833.420,1,6,0.100,17962.000,0.200,11117.000,0.300,1376.000,0.500,277.000,1.000,157.000,5.000,0
"07/08/06","21:11:13","AMMA06",31099.000,"cc",28272.000,6.00,2827.200,1,6,0.100,18149.000,0.200,11116.000,0.300,1399.000,0.500,281.000,1.000,154.000,5.000,0
"07/08/06","21:11:19","AMMA06",30705.000,"cc",28288.711,6.00,2828.871,1,6,0.100,18102.000,0.200,10934.000,0.300,1289.000,0.500,245.000,1.000,135.000,5.000,0
"07/08/06","21:11:25","AMMA06",31503.000,"cc",28280.350,6.00,2828.035,1,6,0.100,18423.000,0.200,11099.000,0.300,1459.000,0.500,374.000,1.000,148.000,5.000,0
"07/08/06","21:11:31","AMMA06",32619.000,"cc",28361.766,6.00,2836.177,1,6,0.100,19107.000,0.200,11194.000,0.300,1659.000,0.500,440.000,1.000,219.000,5.000,0
"07/08/06","21:11:37","AMMA06",32256.000,"cc",28307.029,6.00,2830.703,1,6,0.100,18810.000,0.200,11191.000,0.300,1584.000,0.500,454.000,1.000,217.000,5.000,0
"07/08/06","21:11:43","AMMA06",31940.000,"cc",28286.070,6.00,2828.607,1,6,0.100,18616.000,0.200,11241.000,0.300,1498.000,0.500,401.000,1.000,184.000,5.000,0
"07/08/06","21:11:49","AMMA06",31727.000,"cc",28389.775,6.00,2838.978,1,6,0.100,18393.000,0.200,11245.000,0.300,1523.000,0.500,372.000,1.000,194.000,5.000,0
"07/08/06","21:11:55","AMMA06",30849.000,"cc",28319.293,6.00,2831.929,1,6,0.100,18100.000,0.200,11028.000,0.300,1333.000,0.500,237.000,1.000,151.000,5.000,0
"07/08/06","21:12:01","AMMA06",30911.000,"cc",28279.252,6.00,2827.925,1,6,0.100,18143.000,0.200,11072.000,0.300,1326.000,0.500,223.000,1.000,147.000,5.000,0
"07/08/06","21:12:07","AMMA06",30913.000,"cc",28283.736,6.00,2828.374,1,6,0.100,18173.000,0.200,11043.000,0.300,1341.000,0.500,232.000,1.000,124.000,5.000,0
"07/08/06","21:12:13","AMMA06",30425.000,"cc",28284.922,6.00,2828.492,1,6,0.100,17816.000,0.200,10999.000,0.300,1279.000,0.500,206.000,1.000,125.000,5.000,0
"07/08/06","21:12:19","AMMA06",30860.000,"cc",28277.836,6.00,2827.784,1,6,0.100,18051.000,0.200,11203.000,0.300,1311.000,0.500,206.000,1.000,89.000,5.000,0
"07/08/06","21:12:25","AMMA06",30544.000,"cc",28349.410,6.00,2834.941,1,6,0.100,17987.000,0.200,10996.000,0.300,1259.000,0.500,185.000,1.000,117.000,5.000,0
"07/08/06","21:12:31","AMMA06",30626.000,"cc",28341.772,6.00,2834.177,1,6,0.100,17938.000,0.200,11074.000,0.300,1295.000,0.500,193.000,1.000,126.000,5.000,0
"07/08/06","21:12:37","AMMA06",30697.000,"cc",28382.051,6.00,2838.205,1,6,0.100,17962.000,0.200,11101.000,0.300,1324.000,0.500,205.000,1.000,105.000,5.000,0
"07/08/06","21:12:43","AMMA06",30581.000,"cc",28272.080,6.00,2827.208,1,6,0.100,17783.000,0.200,11078.000,0.300,1348.000,0.500,225.000,1.000,147.000,5.000,0
"07/08/06","21:12:49","AMMA06",31027.000,"cc",28306.129,6.00,2830.613,1,6,0.100,17996.000,0.200,11258.000,0.300,1402.000,0.500,244.000,1.000,127.000,5.000,0
"07/08/06","21:12:55","AMMA06",30767.000,"cc",28337.152,6.00,2833.715,1,6,0.100,18087.000,0.200,10923.000,0.300,1398.000,0.500,229.000,1.000,130.000,5.000,0
"07/08/06","21:13:01","AMMA06",30772.000,"cc",28355.777,6.00,2835.578,1,6,0.100,17994.000,0.200,11024.000,0.300,1401.000,0.500,230.000,1.000,123.000,5.000,0
"07/08/06","21:13:07","AMMA06",30312.000,"cc",28281.998,6.00,2828.200,1,6,0.100,17776.000,0.200,10877.000,0.300,1331.000,0.500,209.000,1.000,119.000,5.000,0
"07/08/06","21:13:13","AMMA06",31091.000,"cc",28297.164,6.00,2829.717,1,6,0.100,18167.000,0.200,11065.000,0.300,1464.000,0.500,263.000,1.000,132.000,5.000,0
"07/08/06","21:13:19","AMMA06",30732.000,"cc",28352.539,6.00,2835.254,1,6,0.100,18072.000,0.200,10938.000,0.300,1373.000,0.500,222.000,1.000,127.000,5.000,0
"07/08/06","21:13:25","AMMA06",33746.000,"cc",28298.998,6.00,2829.900,1,6,0.100,19263.000,0.200,11783.000,0.300,1881.000,0.500,547.000,1.000,272.000,5.000,0
"07/08/06","21:13:31","AMMA06",32247.000,"cc",28354.854,6.00,2835.486,1,6,0.100,18720.000,0.200,11284.000,0.300,1710.000,0.500,361.000,1.000,172.000,5.000,0
"07/08/06","21:13:37","AMMA06",30890.000,"cc",28310.768,6.00,2831.077,1,6,0.100,17902.000,0.200,11177.000,0.300,1429.000,0.500,250.000,1.000,132.000,5.000,0
"07/08/06","21:13:43","AMMA06",30509.000,"cc",28331.846,6.00,2833.185,1,6,0.100,17840.000,0.200,11021.000,0.300,1298.000,0.500,231.000,1.000,119.000,5.000,0
"07/08/06","21:13:49","AMMA06",30975.000,"cc",28345.131,6.00,2834.513,1,6,0.100,18148.000,0.200,11162.000,0.300,1324.000,0.500,221.000,1.000,120.000,5.000,0
"07/08/06","21:13:55","AMMA06",30817.000,"cc",28300.416,6.00,2830.042,1,6,0.100,17944.000,0.200,11180.000,0.300,1326.000,0.500,229.000,1.000,138.000,5.000,0
"07/08/06","21:14:01","AMMA06",30476.000,"cc",28295.350,6.00,2829.535,1,6,0.100,17941.000,0.200,10835.000,0.300,1343.000,0.500,220.000,1.000,137.000,5.000,0
"07/08/06","21:14:07","AMMA06",30365.000,"cc",28330.150,6.00,2833.015,1,6,0.100,17748.000,0.200,10977.000,0.300,1279.000,0.500,232.000,1.000,129.000,5.000,0
"07/08/06","21:14:13","AMMA06",30464.000,"cc",28333.074,6.00,2833.308,1,6,0.100,17904.000,0.200,10951.000,0.300,1286.000,0.500,205.000,1.000,118.000,5.000,0